Location: ??
(34.9170°N, 135.5016°E)
Time: 09:59:23
(UTC+00:00)

Transit 4A - Visible Passes

Search period start: 01 March 2021 00:00
Search period end: 11 March 2021 00:00
Orbit: 866 x 978 km, 66.8° (Epoch: 28 February)

Date Brightness Start Highest point End Pass type
(mag) Time Alt. Az. Time Alt. Az. Time Alt. Az.
01 Mar 9.3 09:33:26 10° N 09:37:27 18° NE 09:40:24 13° E visible
01 Mar 8.0 11:18:25 10° NNW 11:23:58 67° W 11:23:58 67° W visible
02 Mar 8.8 09:42:06 10° N 09:47:04 26° NE 09:50:26 16° E visible
02 Mar 8.6 11:27:57 10° NW 11:33:34 44° WSW 11:34:01 43° WSW visible
03 Mar 8.3 09:51:01 10° NNW 09:56:35 38° ENE 10:00:40 17° ESE visible
03 Mar 9.5 11:37:45 10° NW 11:42:41 28° WSW 11:44:16 25° SW visible
04 Mar 7.8 10:00:06 10° NNW 10:06:01 58° ENE 10:11:08 13° SE visible
04 Mar 10.2 11:48:00 10° WNW 11:51:44 17° WSW 11:54:45 12° SW visible
05 Mar 7.7 10:09:20 10° NNW 10:15:21 89° ENE 10:21:10 10° SSE visible
06 Mar 8.3 10:18:44 10° NW 10:24:35 59° WSW 10:30:17 10° S visible
07 Mar 9.2 10:28:21 10° NW 10:33:45 37° WSW 10:39:02 10° S visible
08 Mar 10.0 10:38:16 10° NW 10:42:51 24° WSW 10:47:21 10° SSW visible
09 Mar 10.6 10:48:50 10° WNW 10:51:52 14° WSW 10:54:54 10° SW visible
